• In Hungary
  • List of Countries
  • For 7 days
  • Water Temperature
  • Satellite Maps
  • Weather Map
  • News
  • Weather Widgets
  • user-avatar
    Login

    Hourly Weather Peshawar

    Today, 21 September, Thursday

    Time Temperature Precipitation Wind Pressure Humidity
    00:00 +32°C° 0 mm 5 mps 748 mmHg 58%
    01:00 +30°C° 0 mm 5 mps 748 mmHg 63%
    02:00 +30°C° 0 mm 5 mps 747 mmHg 66%
    03:00 +30°C° 0 mm 5 mps 747 mmHg 70%
    04:00 +29°C° 0 mm 4 mps 747 mmHg 70%
    05:00 +29°C° 0 mm 4 mps 748 mmHg 70%
    06:00 +30°C° 0 mm 4 mps 748 mmHg 71%
    07:00 +30°C° 0 mm 4 mps 748 mmHg 71%
    08:00 +32°C° 0 mm 4 mps 748 mmHg 62%
    09:00 +34°C° 0 mm 4 mps 748 mmHg 54%
    10:00 +36°C° 0 mm 4 mps 748 mmHg 42%
    11:00 +37°C° 0 mm 5 mps 748 mmHg 40%
    12:00 +39°C° 0 mm 5 mps 747 mmHg 38%
    13:00 +40°C° 0 mm 6 mps 747 mmHg 36%
    14:00 +39°C° 0 mm 6 mps 747 mmHg 37%
    15:00 +38°C° 0 mm 6 mps 747 mmHg 39%
    16:00 +36°C° 0 mm 5 mps 747 mmHg 40%
    17:00 +35°C° 0 mm 5 mps 747 mmHg 45%
    18:00 +34°C° 0 mm 5 mps 747 mmHg 51%
    19:00 +33°C° 0 mm 5 mps 748 mmHg 57%
    20:00 +32°C° 0 mm 4 mps 748 mmHg 60%
    21:00 +32°C° 0 mm 4 mps 748 mmHg 63%
    22:00 +30°C° 0 mm 4 mps 749 mmHg 66%
    23:00 +30°C° 0 mm 4 mps 748 mmHg 68%

    Tomorrow, 22 September, Friday

    Time Temperature Precipitation Wind Pressure Humidity
    00:00 +30°C° 0 mm 4 mps 748 mmHg 70%
    01:00 +29°C° 0 mm 4 mps 748 mmHg 73%
    02:00 +29°C° 0 mm 4 mps 748 mmHg 75%
    03:00 +29°C° 0 mm 4 mps 748 mmHg 77%
    04:00 +28°C° 0 mm 4 mps 748 mmHg 78%
    05:00 +29°C° 0 mm 4 mps 748 mmHg 77%
    06:00 +29°C° 0 mm 4 mps 749 mmHg 76%
    07:00 +29°C° 0 mm 4 mps 749 mmHg 75%
    08:00 +32°C° 0 mm 5 mps 749 mmHg 67%
    09:00 +33°C° 0 mm 5 mps 749 mmHg 59%
    10:00 +34°C° 0 mm 5 mps 749 mmHg 51%
    11:00 +35°C° 0 mm 6 mps 749 mmHg 50%
    12:00 +36°C° 0 mm 6 mps 749 mmHg 48%
    13:00 +36°C° 0 mm 6 mps 748 mmHg 46%
    14:00 +36°C° 0 mm 6 mps 748 mmHg 50%
    15:00 +35°C° 0 mm 6 mps 748 mmHg 54%
    16:00 +34°C° 0 mm 6 mps 748 mmHg 58%
    17:00 +33°C° 0 mm 6 mps 748 mmHg 64%
    18:00 +32°C° 0 mm 6 mps 749 mmHg 70%
    19:00 +30°C° 0 mm 5 mps 749 mmHg 76%
    20:00 +30°C° 0 mm 5 mps 749 mmHg 77%
    21:00 +29°C° 0 mm 5 mps 750 mmHg 78%
    22:00 +29°C° 0 mm 5 mps 750 mmHg 79%
    23:00 +29°C° 0 mm 5 mps 750 mmHg 80%

    Day after tomorrow, 23 September, Saturday

    Time Temperature Precipitation Wind Pressure Humidity
    00:00 +29°C° 0 mm 5 mps 750 mmHg 81%
    01:00 +29°C° 0 mm 5 mps 749 mmHg 82%
    02:00 +28°C° 0 mm 5 mps 749 mmHg 82%
    03:00 +28°C° 0 mm 5 mps 749 mmHg 83%
    04:00 +28°C° 0 mm 5 mps 749 mmHg 83%
    05:00 +29°C° 0 mm 5 mps 750 mmHg 81%
    06:00 +29°C° 0 mm 5 mps 750 mmHg 80%
    07:00 +29°C° 0 mm 5 mps 751 mmHg 78%
    08:00 +30°C° 0 mm 6 mps 751 mmHg 71%
    09:00 +32°C° 0 mm 6 mps 751 mmHg 65%
    10:00 +34°C° 0 mm 6 mps 751 mmHg 59%
    11:00 +34°C° 0 mm 6 mps 751 mmHg 57%
    12:00 +35°C° 0 mm 7 mps 750 mmHg 55%
    13:00 +35°C° 0 mm 7 mps 750 mmHg 53%
    14:00 +35°C° 0 mm 7 mps 750 mmHg 57%
    15:00 +34°C° 0 mm 6 mps 750 mmHg 60%
    16:00 +33°C° 0 mm 6 mps 750 mmHg 63%
    17:00 +32°C° 0 mm 6 mps 750 mmHg 68%
    18:00 +32°C° 0 mm 5 mps 750 mmHg 72%
    19:00 +30°C° 0 mm 5 mps 751 mmHg 76%
    20:00 +30°C° 0 mm 5 mps 751 mmHg 77%
    21:00 +30°C° 0 mm 5 mps 751 mmHg 78%
    22:00 +29°C° 0 mm 5 mps 752 mmHg 78%
    23:00 +29°C° 0 mm 5 mps 751 mmHg 79%

    24 September, Sunday

    Time Temperature Precipitation Wind Pressure Humidity
    00:00 +29°C° 0 mm 5 mps 751 mmHg 80%
    01:00 +29°C° 0 mm 5 mps 751 mmHg 81%
    02:00 +29°C° 0 mm 5 mps 751 mmHg 81%
    03:00 +29°C° 0 mm 5 mps 750 mmHg 81%
    04:00 +29°C° 0 mm 5 mps 750 mmHg 81%
    05:00 +29°C° 0 mm 5 mps 751 mmHg 79%
    06:00 +29°C° 0 mm 5 mps 751 mmHg 78%
    07:00 +29°C° 0 mm 6 mps 752 mmHg 76%
    08:00 +30°C° 0 mm 6 mps 752 mmHg 71%
    09:00 +32°C° 0 mm 6 mps 752 mmHg 67%
    10:00 +33°C° 0 mm 6 mps 752 mmHg 62%
    11:00 +34°C° 0 mm 6 mps 752 mmHg 59%
    12:00 +35°C° 0 mm 7 mps 751 mmHg 57%
    13:00 +35°C° 0 mm 7 mps 750 mmHg 54%
    14:00 +35°C° 0 mm 7 mps 750 mmHg 56%
    15:00 +34°C° 0 mm 7 mps 750 mmHg 59%
    16:00 +34°C° 0 mm 6 mps 750 mmHg 61%
    17:00 +33°C° 0 mm 6 mps 750 mmHg 66%
    18:00 +32°C° 0 mm 6 mps 750 mmHg 72%
    19:00 +30°C° 0 mm 5 mps 751 mmHg 77%
    20:00 +30°C° 0 mm 5 mps 751 mmHg 78%
    21:00 +29°C° 0 mm 5 mps 751 mmHg 79%
    22:00 +29°C° 0 mm 5 mps 751 mmHg 80%
    23:00 +29°C° 0 mm 5 mps 751 mmHg 81%

    25 September, Monday

    Time Temperature Precipitation Wind Pressure Humidity
    00:00 +29°C° 0 mm 5 mps 750 mmHg 81%
    01:00 +29°C° 0 mm 6 mps 750 mmHg 82%
    02:00 +28°C° 0 mm 6 mps 750 mmHg 82%
    03:00 +28°C° 0 mm 6 mps 750 mmHg 82%
    04:00 +28°C° 0 mm 6 mps 749 mmHg 83%
    05:00 +29°C° 0 mm 6 mps 750 mmHg 81%
    06:00 +29°C° 0 mm 5 mps 750 mmHg 79%
    07:00 +29°C° 0 mm 5 mps 750 mmHg 77%
    08:00 +32°C° 0 mm 6 mps 751 mmHg 69%
    09:00 +33°C° 0 mm 6 mps 751 mmHg 61%
    10:00 +35°C° 0 mm 6 mps 751 mmHg 53%
    11:00 +35°C° 0 mm 6 mps 750 mmHg 50%
    12:00 +36°C° 0 mm 7 mps 749 mmHg 47%
    13:00 +38°C° 0 mm 7 mps 749 mmHg 44%
    14:00 +36°C° 0 mm 7 mps 749 mmHg 48%
    15:00 +35°C° 0 mm 7 mps 748 mmHg 51%
    16:00 +34°C° 0 mm 7 mps 748 mmHg 54%
    17:00 +33°C° 0 mm 7 mps 749 mmHg 59%
    18:00 +32°C° 0 mm 6 mps 749 mmHg 65%
    19:00 +30°C° 0 mm 6 mps 749 mmHg 70%
    20:00 +30°C° 0 mm 6 mps 750 mmHg 71%
    21:00 +30°C° 0 mm 5 mps 750 mmHg 73%
    22:00 +29°C° 0 mm 5 mps 750 mmHg 75%
    23:00 +29°C° 0 mm 5 mps 750 mmHg 76%

    26 September, Tuesday

    Time Temperature Precipitation Wind Pressure Humidity
    00:00 +29°C° 0 mm 5 mps 749 mmHg 76%
    01:00 +29°C° 0 mm 5 mps 749 mmHg 77%
    02:00 +29°C° 0 mm 5 mps 749 mmHg 78%
    03:00 +29°C° 0 mm 5 mps 749 mmHg 78%
    04:00 +28°C° 0 mm 4 mps 749 mmHg 79%
    05:00 +29°C° 0 mm 5 mps 749 mmHg 77%
    06:00 +29°C° 0 mm 5 mps 750 mmHg 75%
    07:00 +29°C° 0 mm 5 mps 750 mmHg 73%
    08:00 +32°C° 0 mm 5 mps 750 mmHg 66%
    09:00 +33°C° 0 mm 6 mps 750 mmHg 58%
    10:00 +35°C° 0 mm 6 mps 751 mmHg 50%
    11:00 +35°C° 0 mm 7 mps 750 mmHg 49%
    12:00 +36°C° 0 mm 7 mps 750 mmHg 47%
    13:00 +36°C° 0 mm 7 mps 749 mmHg 45%
    14:00 +36°C° 0 mm 7 mps 749 mmHg 49%
    15:00 +35°C° 0 mm 7 mps 749 mmHg 53%
    16:00 +34°C° 0 mm 7 mps 749 mmHg 57%
    17:00 +33°C° 0 mm 6 mps 749 mmHg 62%
    18:00 +32°C° 0 mm 6 mps 750 mmHg 67%
    19:00 +30°C° 0 mm 6 mps 750 mmHg 72%
    20:00 +30°C° 0 mm 6 mps 751 mmHg 74%
    21:00 +30°C° 0 mm 6 mps 751 mmHg 76%
    22:00 +29°C° 0 mm 6 mps 751 mmHg 77%
    23:00 +29°C° 0 mm 6 mps 751 mmHg 78%
    Show more